Probability
2 4 12 19 20 16 14 12 10 8 7 6 4 2 1 1 2 2 2 2 1 1 0 0 0 0 0 0 0 0 0 0 0 0 0 0 0 0 0 0 0 0 0
4 8 18 24 23 19 15 12 11 9 9 8 6 4 3 1 1 1 1 1 1 1 0 0 0 0 0 0 0 0 0 0 0 0 0 0 0 0 0 0 0 0 0
12 16 24 28 26 22 18 15 13 12 11 9 7 6 5 3 1 0 0 0 1 1 0 0 0 0 0 0 0 0 0 0 0 0 0 0 0 0 0 0 0 0 0
22 23 26 30 29 25 22 19 16 14 12 9 7 6 6 4 2 0 0 0 0 0 0 0 0 0 0 0 0 0 0 0 0 0 0 0 0 0 0 0 0 0 0
28 26 27 30 31 28 26 22 18 15 12 9 7 6 6 4 2 1 1 2 1 0 0 0 0 0 0 0 0 0 0 0 0 0 0 0 0 0 0 0 0 0 0
30 29 30 31 31 30 28 23 19 16 12 9 7 6 6 4 3 3 3 3 2 0 0 0 0 0 0 0 0 0 0 0 0 0 0 0 0 0 0 0 0 0 0
32 33 35 35 33 31 29 24 20 16 12 9 8 7 6 4 3 3 3 2 1 0 0 0 0 0 0 0 0 0 0 0 0 0 0 0 0 0 0 0 0 0 0
34 35 38 39 37 34 30 24 19 14 11 9 9 8 7 6 4 2 1 1 0 0 0 0 0 0 0 0 0 0 0 0 0 0 0 0 0 0 0 0 0 0 0
34 37 40 41 39 36 30 23 17 13 11 10 9 9 8 6 4 2 0 0 0 0 0 0 0 0 0 0 0 0 0 0 0 0 0 0 0 0 0 0 0 0 0
34 37 42 42 38 33 27 20 16 13 11 10 9 8 6 5 3 2 0 0 0 0 0 0 0 0 0 0 0 0 0 0 0 0 0 0 0 0 0 0 0 0 0
34 36 38 37 32 26 21 16 14 12 10 9 8 6 4 3 2 1 0 0 0 0 0 0 0 0 0 0 0 0 0 0 0 0 0 0 1 1 1 1 1 0 1
32 32 33 31 27 23 18 14 12 11 9 7 6 4 3 2 1 0 0 0 0 0 0 0 0 0 0 0 0 0 0 0 0 0 0 0 1 2 2 2 2 2 2
30 29 28 27 25 21 17 13 10 9 7 6 4 2 1 1 0 0 0 0 0 0 0 0 0 0 0 0 0 0 0 0 0 0 0 0 1 2 1 1 2 2 3
28 26 24 22 21 19 15 11 8 7 6 5 3 1 0 0 0 0 0 0 0 0 0 0 0 0 0 0 0 0 0 0 0 0 0 0 0 0 0 0 1 1 2
24 22 19 17 17 15 12 9 7 6 5 4 2 0 0 0 0 0 0 0 0 0 0 0 0 0 0 0 0 0 0 0 0 0 0 0 0 0 0 0 0 0 1
20 18 15 13 12 11 9 8 7 5 3 3 2 0 0 0 0 0 0 0 0 0 0 0 0 0 0 0 0 0 0 0 0 0 0 0 0 0 0 0 0 0 0
18 15 12 11 10 9 7 6 5 3 2 2 2 0 0 0 0 0 0 0 0 0 0 0 0 0 0 0 0 0 0 0 0 0 0 0 0 0 0 0 0 0 0
16 14 12 12 11 8 6 5 3 2 1 1 1 0 0 0 0 0 0 0 0 0 0 0 0 0 0 0 0 0 0 0 0 0 0 0 0 0 0 0 0 0 0
15 14 13 12 11 8 5 5 4 2 1 0 0 0 0 0 0 0 0 0 0 0 0 0 0 0 0 0 0 0 0 0 0 0 0 0 0 0 0 0 0 0 0
15 14 13 12 10 7 6 5 4 3 1 0 0 0 0 0 0 0 0 0 0 0 0 0 0 0 0 0 0 0 0 0 0 0 0 0 0 0 0 0 0 0 0
15 14 13 12 10 8 5 4 3 2 1 0 0 0 0 0 0 0 0 0 0 0 0 0 0 0 0 0 0 0 0 0 0 0 0 0 0 0 0 0 0 0 0
14 14 13 11 9 7 5 3 1 1 0 0 0 0 0 0 0 0 0 0 0 0 0 0 0 0 0 0 0 0 0 0 0 0 0 0 0 0 0 0 0 0 0
12 11 11 9 8 7 6 4 2 1 0 0 0 0 0 0 0 0 1 2 1 1 1 0 0 0 0 0 0 0 0 0 0 0 0 0 0 0 0 0 0 0 0
8 8 8 7 6 6 5 5 4 2 1 0 0 0 0 0 0 1 2 2 2 2 1 0 0 0 0 0 0 0 0 0 0 0 0 0 0 0 0 0 0 0 0
6 6 6 5 4 4 4 4 4 2 1 0 0 0 0 0 1 2 2 1 1 1 1 0 0 0 0 0 0 0 0 0 0 0 0 0 0 0 0 0 0 0 0
6 6 6 4 3 3 3 3 3 1 0 0 0 0 0 0 1 2 2 1 0 0 0 0 0 0 0 0 0 0 0 0 0 0 0 0 0 0 0 0 0 0 0
Wind_Speed
6 8 14 15 16 16 16 15 15 15 14 14 14 14 14 14 14 14 13 13 12 12 12 12 12 12 12 12 11 11 11 11 10 10 10 10 10 10 9 9 8 5 9
10 11 15 15 16 16 16 15 15 15 14 14 14 14 14 13 13 13 12 12 12 12 12 12 12 11 11 11 10 10 10 10 10 10 10 9 9 9 9 9 8 5 9
12 12 14 15 16 16 16 15 15 15 14 14 14 13 13 13 12 12 12 12 12 12 11 11 11 11 11 10 9 9 10 10 10 9 8 5 5 8 9 9 8 8 8
13 11 12 16 16 16 16 16 15 15 14 14 13 13 12 12 12 12 12 12 12 11 11 11 10 10 10 10 9 9 8 9 9 8 5 4 3 7 8 8 7 7 7
11 10 12 16 16 16 16 15 15 14 14 13 13 13 12 12 11 11 11 11 11 11 10 10 10 9 9 9 9 9 9 9 9 7 4 4 3 6 7 7 7 7 7
10 9 12 16 16 16 16 15 15 14 14 13 13 13 12 12 11 11 11 11 10 10 10 9 9 9 9 9 9 9 9 9 8 4 4 3 3 5 7 7 7 7 6
10 9 12 16 16 16 15 15 14 14 13 13 12 12 12 12 11 11 10 10 10 9 9 8 8 8 8 8 8 9 9 8 5 4 3 3 3 6 7 7 7 7 7
11 10 11 15 15 15 15 15 14 13 13 13 12 12 12 11 11 10 10 9 9 9 8 8 8 7 8 8 8 8 8 7 6 5 3 3 5 6 7 7 7 7 7
10 9 8 9 11 14 15 14 13 12 12 12 11 11 11 10 10 10 9 9 9 8 8 7 7 7 8 8 8 8 8 8 5 3 3 2 5 6 7 7 7 7 8
8 8 8 7 7 8 9 12 12 12 12 11 11 11 10 9 9 9 8 8 8 8 7 7 7 7 8 8 8 8 8 7 4 3 2 3 6 6 6 7 7 8 8
8 7 7 7 7 7 7 9 10 10 10 10 9 11 9 5 5 5 6 7 7 7 6 6 6 7 7 7 8 8 7 2 3 2 2 5 7 7 7 7 8 8 8
10 8 7 8 7 7 6 6 5 5 5 5 5 5 4 4 3 4 6 7 7 6 6 6 7 7 5 3 5 6 3 3 3 2 3 6 7 8 8 8 8 8 9
10 8 8 8 7 7 6 5 3 3 4 4 5 5 4 4 3 3 2 3 3 4 3 4 4 3 3 2 2 2 3 3 2 2 3 6 7 8 8 8 8 8 9
9 8 8 8 7 7 6 5 4 4 4 3 4 5 4 3 3 2 2 2 2 1 2 2 2 2 3 3 3 3 3 2 2 2 3 7 7 7 8 8 8 8 9
8 7 7 8 8 7 6 5 5 5 4 4 4 4 5 4 3 3 2 2 2 1 2 2 2 2 3 3 2 3 2 2 2 2 2 6 7 7 7 8 8 9 9
8 7 7 8 8 7 6 5 5 5 5 4 4 4 5 4 4 3 3 2 1 1 1 2 2 2 2 2 3 2 2 2 2 2 2 3 7 7 8 8 9 9 9
8 7 7 8 8 8 7 6 5 5 5 4 4 4 5 5 4 4 3 2 1 1 2 2 2 2 2 2 3 2 1 2 2 2 2 2 3 6 9 9 9 10 10
7 7 7 7 8 7 6 6 4 4 5 4 3 4 5 5 5 4 3 2 1 2 2 2 2 2 2 2 2 2 1 1 2 2 2 2 2 3 5 8 10 10 10
7 7 6 6 7 7 6 5 5 4 4 4 4 3 4 5 5 4 3 2 2 2 2 2 2 2 2 2 1 2 2 1 1 2 1 1 2 2 2 6 9 10 11
6 6 6 6 6 6 5 4 4 4 3 3 3 4 5 4 5 4 3 3 3 2 2 2 2 2 1 1 2 2 2 2 1 1 1 1 2 3 3 3 4 6 10
5 5 5 6 6 6 5 5 4 4 3 3 3 4 5 5 5 5 3 3 3 3 2 2 2 2 2 2 2 2 3 2 2 1 1 1 2 3 3 3 3 3 4
6 6 6 6 6 6 5 4 3 3 2 3 2 3 4 5 5 4 4 3 3 3 3 2 2 2 1 2 2 2 2 3 3 2 2 1 2 3 3 4 3 3 3
6 6 6 6 5 5 5 4 4 3 3 2 2 2 3 4 4 4 5 4 3 3 3 2 2 3 2 1 2 2 2 1 3 3 2 2 2 3 3 3 3 3 4
5 4 5 5 5 5 6 7 8 6 4 4 3 3 3 4 4 4 4 4 4 3 3 3 2 2 3 1 1 1 1 2 1 3 3 2 3 3 3 3 3 4 4
3 4 4 5 5 4 5 7 7 5 3 3 3 4 3 3 3 4 4 4 4 3 3 3 2 2 2 2 1 1 1 1 1 1 3 4 4 3 3 3 3 3 4
1 2 3 4 4 5 5 5 6 7 6 6 5 5 3 2 2 3 4 3 3 3 3 3 2 3 2 2 1 1 1 1 0 1 2 4 4 4 4 2 2 3 3
Wind_Direction
159 158 148 142 137 133 129 125 121 117 113 110 108 106 104 102 100 99 97 94 91 88 86 85 81 79 78 77 75 74 72 70 66 62 62 64 66 66 64 60 57 57 58
149 153 146 143 138 134 130 126 121 119 116 113 111 109 107 105 103 100 98 95 92 88 85 83 81 78 76 75 74 72 71 69 65 57 55 56 60 63 62 61 58 59 56
142 148 145 143 138 135 131 127 125 122 119 116 114 111 109 106 105 103 100 96 93 89 85 82 79 76 73 71 71 70 69 65 61 53 46 35 45 60 64 61 57 55 53
142 145 145 143 139 135 132 129 127 125 122 119 116 114 112 109 107 104 101 97 93 89 86 82 77 74 70 66 63 64 66 63 56 50 41 26 31 58 61 57 53 51 46
139 142 144 142 139 137 134 131 129 127 125 122 120 118 115 112 109 106 102 99 96 91 87 82 77 73 68 61 58 60 63 61 53 48 35 24 26 57 57 51 48 45 41
136 139 144 142 140 138 135 132 131 129 127 125 124 121 118 114 110 107 103 102 100 95 90 85 79 72 65 60 58 61 62 59 53 43 33 24 21 52 52 49 47 43 36
136 139 144 142 141 139 136 135 133 131 129 127 125 124 121 116 113 110 104 102 99 96 92 87 81 74 68 61 60 61 61 59 58 46 34 25 36 49 49 48 41 37 32
137 140 143 143 142 140 138 137 135 133 131 129 127 125 123 119 116 113 108 103 99 96 92 85 80 74 68 62 61 58 59 57 61 49 34 29 43 46 45 40 36 29 24
136 137 140 143 143 141 138 137 135 134 131 128 125 122 119 118 116 113 110 105 100 96 92 86 79 72 66 61 60 57 60 59 54 41 34 28 40 44 43 38 32 26 22
134 137 138 136 136 138 138 136 135 133 130 126 121 116 111 109 109 109 105 103 98 93 88 82 76 70 61 57 59 60 62 55 47 39 21 29 39 40 37 35 32 27 23
137 139 140 138 137 137 137 138 134 131 127 123 118 115 108 97 93 97 103 103 100 93 87 81 74 65 56 52 55 57 54 52 47 35 18 35 38 38 35 33 31 25 20
153 151 146 143 144 141 138 131 128 124 123 117 116 113 105 102 98 97 94 95 93 85 78 74 67 59 50 40 45 48 50 51 48 29 28 36 37 39 35 31 28 23 19
157 156 155 150 148 145 141 138 131 125 122 117 119 116 109 98 91 83 76 68 63 63 56 51 46 42 44 45 49 51 54 52 41 22 22 37 38 35 31 27 24 21 17
155 159 160 154 149 149 146 145 141 139 135 132 131 127 121 114 104 101 89 76 63 59 61 50 50 42 46 48 59 64 59 54 43 26 26 37 35 34 30 26 24 21 16
157 161 162 157 155 152 148 150 147 147 144 141 137 135 131 128 128 118 107 91 79 71 70 64 61 57 54 49 52 65 67 62 54 39 17 33 35 32 30 25 21 16 12
164 165 162 159 158 151 152 153 152 149 145 141 140 141 135 132 134 128 116 105 92 87 82 82 75 70 58 61 54 54 67 72 60 48 33 26 31 31 28 22 18 13 6
165 164 163 162 154 152 152 154 149 147 143 142 143 141 137 132 132 129 123 115 105 88 81 75 63 63 58 54 48 41 62 68 66 59 45 33 20 24 24 20 12 5 359
155 160 167 162 156 155 154 151 145 143 141 141 138 138 137 135 132 127 125 124 112 96 87 87 74 64 51 50 39 22 38 55 67 65 54 42 26 12 8 9 4 0 356
161 158 162 157 157 155 149 145 141 139 140 141 137 139 140 137 134 130 128 123 113 98 88 88 71 82 64 40 37 31 25 41 58 64 51 38 17 7 358 358 358 354 351
157 153 149 149 152 145 137 125 123 125 133 136 141 145 143 141 136 129 125 119 115 105 86 82 84 62 71 50 44 27 8 9 25 40 27 14 359 358 358 353 349 347 350
145 145 149 149 153 148 148 152 151 155 153 146 148 148 146 142 140 134 130 127 124 122 120 111 97 75 46 38 61 20 355 357 11 355 5 2 352 347 349 347 342 342 339
162 161 158 158 161 163 163 162 151 141 146 148 145 144 146 143 145 142 142 142 137 123 109 104 103 94 54 40 85 78 5 343 340 341 343 342 342 342 341 340 338 338 332
169 171 171 171 166 162 148 133 117 94 85 105 143 155 159 152 150 150 151 145 142 139 142 138 131 120 120 23 57 113 126 246 307 316 310 326 332 329 325 327 333 329 331
184 177 171 170 164 159 153 156 157 161 167 180 172 165 157 155 154 154 151 148 147 145 148 153 135 126 130 127 33 46 124 161 159 310 314 319 318 309 310 318 324 320 323
177 177 176 170 166 162 167 168 166 165 159 144 142 147 152 156 160 157 153 149 151 151 152 146 133 124 131 143 144 124 72 48 95 178 293 314 320 302 301 297 304 314 323
128 154 170 172 176 171 171 173 173 166 156 151 158 164 166 161 166 165 154 154 158 156 159 159 150 141 137 128 126 127 135 143 190 186 267 304 308 303 303 295 303 313 321